[[{"header":{"parameterUnit":"m.s-1","parameterCategory":1,"la1":30.2991,"la2":30.254,"lo1":-89.0895,"lo2":-89.0444,"dy":0.0017,"dx":0.0017,"nx":28,"ny":28,"refTime":"2024-12-03T09:00:00:Z","depth":0,"parameterNumber":2,"parameterNumberName":"U-component_of_WINDS"},"data":[0,0,0,0,0,0,0,0,0,0,0,0,0,0,0,0,0,0,0,0,0,0,0,0,0,0,0,0,0,0,0,0,0,0,0,0,0,0,0,0,0,0,0,0,0,0,0,0,0,0,0,0,0,0,0,0,0,0,-4.0192,-4.0192,0,-4.0171,-4.0171,-4.0171,-4.0037,-4.0034,-4.003,-4.0027,-4.0007,-4.0009,-4.0012,0,0,0,0,0,0,0,0,0,0,0,0,0,-4.0119,-4.0121,-4.0192,-4.0192,-4.0192,-4.0171,-4.0171,-4.0171,-4.0038,-4.0034,-4.003,-4.0026,-4.0006,-4.0009,-4.0012,0,0,0,0,0,0,0,0,0,0,0,0,0,-4.013,-4.0121,-4.0192,-4.0123,-4.0116,-4.0171,-4.0171,-4.0171,-4.0038,-4.0033,-4.0029,-4.0024,-4.0005,-4.0009,-4.0012,-4.0132,0,0,-4.0024,-4.0025,0,0,0,0,0,0,0,0,-4.0129,-4.0132,-4.0133,-4.0128,-4.0121,-4.0102,-4.0137,-4.0158,-4.004,-4.0068,-4.0027,-4.0022,-4.0042,-4.0043,-4.0049,-4.0131,-4.013,-4.0024,-4.0026,-4.0028,-4.0029,0,0,0,0,0,0,0,-4.0129,-4.0133,-4.0184,-4.0134,-4.0126,-4.0093,-4.0089,-4.014,-4.0083,-4.0065,-4.0055,-4.0055,-4.0038,-4.0046,-4.0048,-4.013,-4.0024,-4.0027,-4.0029,-4.0031,-4.0309,-4.0314,0,0,0,0,0,0,-4.0137,-4.0133,-4.0185,-4.0183,-4.0113,-4.0099,-4.0094,-4.0113,-4.0082,-4.0072,-4.0059,-4.0049,-4.0042,-4.0044,-4.0047,-4.0184,-4.0028,-4.0031,-4.0033,-4.0304,-4.031,-4.0316,0,0,0,0,0,0,-4.0136,-4.0143,-4.0185,-4.0155,-4.0158,-4.0105,-4.0127,-4.0115,-4.0123,-4.0077,-4.0066,-4.0078,-4.0038,-4.0041,-4.0112,-4.0181,-4.0033,-4.0036,-4.0298,-4.0306,-4.0313,-4.0461,0,0,0,0,0,0,-4.0135,-4.0144,-4.0188,-4.0157,-4.016,-4.0251,-4.0131,-4.0118,-4.0129,-4.0116,-4.0092,-4.0083,-4.0035,-4.0107,-4.0116,-4.0184,-4.0039,-4.0291,-4.0301,-4.0311,-4.0449,-4.0473,-4.0492,0,0,0,0,0,-4.0133,-4.0231,-4.0191,-4.0198,-4.0215,-4.0255,-4.0257,-4.0199,-4.0136,-4.018,-4.0151,-4.0084,-4.0173,-4.0115,-4.0124,-4.0194,-4.0287,-4.0299,-4.031,-4.044,-4.0468,-4.0492,0,0,0,0,0,0,-4.0272,-4.0226,-4.0181,-4.0272,-4.0269,-4.0233,-4.0287,-4.0231,-4.0245,-4.0232,-4.016,-4.0155,-4.0236,-4.0223,-4.0159,-4.0309,-4.0218,-4.0232,-4.0314,-4.0341,-4.0362,-4.0362,-4.0042,0,0,0,0,0,-4.0313,-4.0349,-4.0307,-4.0392,-4.0393,-4.0341,-4.0356,-4.0312,-4.0305,-4.0303,-4.0278,-4.0275,-4.0302,-4.0321,-4.0343,-4.0448,-4.044,-4.0501,-4.0522,-4.054,-4.0552,-4.0605,-4.0631,-4.0354,-4.0354,-4.0354,0,0,-4.0399,-4.0378,-4.0405,-4.042,-4.0411,-4.045,-4.034,-4.0386,-4.0414,-4.031,-4.0374,-4.0357,-4.0348,-4.0436,-4.0473,-4.0427,-4.0627,-4.0555,-4.057,-4.0572,-4.062,-4.0646,-4.067,-4.0362,-4.0361,-4.0359,0,0,-4.0574,-4.0563,-4.0631,-4.0626,-4.0615,-4.058,-4.0597,-4.0569,-4.0554,-4.0617,-4.0539,-4.0573,-4.0621,-4.0617,-4.0622,-4.0798,-4.0737,-4.0808,-4.0919,-4.0972,-4.0994,-4.1013,-4.1074,-4.1097,-4.0821,-4.0821,-4.0821,0,-4.0681,-4.0736,-4.0674,-4.0725,-4.0733,-4.0641,-4.071,-4.0708,-4.0705,-4.0713,-4.0662,-4.072,-4.0708,-4.0793,-4.0836,-4.0844,-4.086,-4.0809,-4.0996,-4.1014,-4.1031,-4.1089,-4.1112,-4.083,-4.0829,-4.0828,-4.0827,0,-4.0869,-4.0908,-4.0965,-4.0964,-4.098,-4.104,-4.0986,-4.101,-4.0965,-4.0936,-4.1002,-4.0984,-4.1001,-4.1019,-4.0976,-4.1098,-4.1069,-4.1009,-4.0916,-4.1067,-4.112,-4.1141,-4.0842,-4.0839,-4.0836,-4.0834,0,0,-4.1128,-4.1093,-4.1115,-4.1113,-4.1095,-4.1125,-4.1181,-4.1197,-4.1218,-4.122,-4.1265,-4.1309,-4.1252,-4.1258,-4.1214,-4.1261,-4.14,-4.1193,-4.1192,-4.1231,-4.1532,-4.1576,-4.1603,-4.136,-4.1364,-4.1367,-4.1532,0,-4.1294,-4.1387,-4.1333,-4.1434,-4.1469,-4.1383,-4.1432,-4.1427,-4.1402,-4.1429,-4.1401,-4.1433,-4.1356,-4.1359,-4.1402,-4.1374,-4.1459,-4.1362,-4.14,-4.1402,-4.1402,-4.163,-4.1677,-4.1833,-4.1552,-4.1556,-4.1558,0,-4.1499,-4.151,-4.1614,-4.1589,-4.1602,-4.1647,-4.1658,-4.1685,-4.1678,-4.1656,-4.1663,-4.1608,-4.1662,-4.1573,-4.1646,-4.1581,-4.1594,-4.1583,-4.1588,-4.1586,-4.1487,-4.1633,-4.1881,-4.1904,-4.159,-4.1588,-4.1586,0,-4.1675,-4.1716,-4.1783,-4.1785,-4.1759,-4.1792,-4.1783,-4.177,-4.1784,-4.1794,-4.1801,-4.1819,-4.1827,-4.1842,-4.1793,-4.1733,-4.1872,-4.1779,-4.1854,-4.1856,-4.1885,-4.1883,-4.2136,-4.1899,-4.1898,-4.1898,-4.1897,0,-4.1865,-4.1931,-4.1862,-4.1903,-4.1975,-4.1914,-4.1987,-4.1969,-4.1959,-4.1995,-4.1924,-4.1959,-4.1894,-4.1923,-4.1886,-4.1951,-4.1956,-4.194,-4.1929,-4.1945,-4.1946,-4.195,-4.1937,-4.1904,-4.1903,-4.1901,-4.19,0,-4.2072,-4.2028,-4.2096,-4.2066,-4.206,-4.2114,-4.2088,-4.2125,-4.2096,-4.2143,-4.215,-4.2105,-4.2136,-4.2089,-4.2116,-4.209,-4.218,-4.2153,-4.2182,-4.2173,-4.225,-4.2243,-4.2512,-4.2543,-4.2289,-4.2291,-4.2294,0,-4.2194,-4.2243,-4.2219,-4.2237,-4.2232,-4.2264,-4.2277,-4.2219,-4.2236,-4.2232,-4.227,-4.2295,-4.2311,-4.2365,-4.2334,-4.2354,-4.2325,-4.2419,-4.2328,-4.2342,-4.2324,-4.232,-4.2324,-4.2436,-4.2439,-4.2442,-4.2444,0,-4.2415,-4.2391,-4.2412,-4.2427,-4.2445,-4.2454,-4.2458,-4.2478,-4.2417,-4.244,-4.247,-4.2483,-4.251,-4.2535,-4.2547,-4.2538,-4.2481,-4.2474,-4.2491,-4.2507,-4.252,-4.2511,-4.2229,-4.2467,-4.2464,-4.2463,-4.2461,-4.2461,-4.2581,-4.262,-4.2609,-4.2635,-4.2632,-4.2638,-4.2671,-4.2646,-4.267,-4.2687,-4.2652,-4.2691,-4.2684,-4.2694,-4.2691,-4.2721,-4.268,-4.2707,-4.2713,-4.272,-4.2731,-4.2518,-4.2723,-4.2723,-4.2722,-4.2721,-4.2721,0,-4.2795,-4.2784,-4.281,-4.2817,-4.2838,-4.2784,-4.2786,-4.2807,-4.2842,-4.2839,-4.2857,-4.2893,-4.2917,-4.289,-4.2909,-4.2939,-4.2913,-4.2945,-4.2941,-4.2939,-4.2767,-4.2748,-4.2966,-4.2966,-4.2966,-4.2966,-4.2965,-4.2965,-4.2909,-4.2972,-4.2948,-4.3009,-4.2997,-4.3035,-4.304,-4.3045,-4.3042,-4.3085,-4.3105,-4.3087,-4.3074,-4.3092,-4.3113,-4.3104,-4.3114,-4.3155,-4.3137,-4.2976,-4.2952,-4.2929,-4.291,-4.3158,-4.3159,-4.3306,-4.3307,-4.3308]},{"header":{"parameterUnit":"m.s-1","parameterCategory":1,"la1":30.2991,"la2":30.254,"lo1":-89.0895,"lo2":-89.0444,"dy":0.0017,"dx":0.0017,"nx":28,"ny":28,"refTime":"2024-12-03T09:00:00:Z","depth":0,"parameterNumber":3,"parameterNumberName":"V-component_of_WINDS"},"data":[0,0,0,0,0,0,0,0,0,0,0,0,0,0,0,0,0,0,0,0,0,0,0,0,0,0,0,0,0,0,0,0,0,0,0,0,0,0,0,0,0,0,0,0,0,0,0,0,0,0,0,0,0,0,0,0,0,0,1.1303,1.1302,0,1.123,1.1229,1.1228,1.1134,1.1133,1.1131,1.113,1.1053,1.1052,1.1052,0,0,0,0,0,0,0,0,0,0,0,0,0,1.1359,1.1358,1.1303,1.1302,1.1301,1.123,1.1229,1.1228,1.1134,1.1133,1.1131,1.1129,1.1053,1.1052,1.1051,0,0,0,0,0,0,0,0,0,0,0,0,0,1.1315,1.1358,1.1303,1.1246,1.124,1.123,1.1229,1.1228,1.1135,1.1132,1.113,1.1128,1.1053,1.1052,1.1051,1.1091,0,0,1.1048,1.1048,0,0,0,0,0,0,0,0,1.1318,1.1313,1.1255,1.125,1.1243,1.1189,1.122,1.1182,1.1135,1.1175,1.113,1.1127,1.11,1.1095,1.1086,1.1088,1.1084,1.1048,1.1048,1.1047,1.1047,0,0,0,0,0,0,0,1.1321,1.1316,1.1274,1.1254,1.1247,1.1223,1.1214,1.1213,1.1151,1.1171,1.1164,1.1157,1.1096,1.1087,1.1084,1.1083,1.1048,1.1048,1.1047,1.1047,1.1115,1.1117,0,0,0,0,0,0,1.1333,1.1319,1.1276,1.1272,1.1276,1.1224,1.1214,1.1208,1.1151,1.114,1.1159,1.1153,1.109,1.1085,1.1081,1.1125,1.1047,1.1047,1.1046,1.1113,1.1116,1.1118,0,0,0,0,0,0,1.1334,1.133,1.1279,1.1293,1.1285,1.1225,1.122,1.1208,1.1199,1.1141,1.113,1.1162,1.1088,1.1082,1.109,1.1121,1.1046,1.1045,1.111,1.1114,1.1117,1.1213,0,0,0,0,0,0,1.1336,1.1331,1.1346,1.1294,1.1285,1.129,1.1222,1.1208,1.1198,1.119,1.1141,1.113,1.1086,1.1092,1.1089,1.1118,1.1045,1.1107,1.1112,1.1116,1.1206,1.1219,1.123,0,0,0,0,0,1.1339,1.1375,1.1347,1.1342,1.1302,1.1292,1.1287,1.1235,1.1201,1.1216,1.1178,1.1132,1.1118,1.1093,1.1089,1.1119,1.1105,1.111,1.1116,1.1201,1.1217,1.123,0,0,0,0,0,0,1.143,1.1367,1.1335,1.1356,1.1331,1.1276,1.1293,1.1253,1.1235,1.1228,1.1164,1.1154,1.117,1.1144,1.1119,1.1155,1.1104,1.1109,1.1171,1.1185,1.1196,1.1202,1.1044,0,0,0,0,0,1.1453,1.1451,1.1395,1.1419,1.1408,1.1353,1.1347,1.1309,1.128,1.1268,1.1231,1.1204,1.1193,1.1187,1.1174,1.1202,1.1191,1.122,1.1232,1.1242,1.1247,1.1261,1.1274,1.1136,1.1136,1.1136,0,0,1.15,1.1465,1.1467,1.1437,1.1412,1.1411,1.1344,1.1346,1.1344,1.1268,1.1274,1.1246,1.1211,1.123,1.1236,1.1209,1.1283,1.1249,1.1257,1.1257,1.1268,1.1281,1.1293,1.114,1.1139,1.1138,0,0,1.1585,1.1558,1.1575,1.1553,1.1517,1.1481,1.1485,1.1437,1.1416,1.1422,1.1365,1.1362,1.1344,1.1322,1.1309,1.1387,1.1344,1.1384,1.1445,1.146,1.1471,1.148,1.1509,1.152,1.1389,1.139,1.139,0,1.1647,1.1644,1.1589,1.1595,1.1583,1.1515,1.1533,1.1513,1.1475,1.1468,1.1439,1.1417,1.1388,1.1401,1.1421,1.1412,1.1415,1.139,1.1474,1.1482,1.149,1.1517,1.1528,1.1395,1.1394,1.1394,1.1393,0,1.1723,1.1722,1.174,1.1707,1.1697,1.1708,1.1655,1.1652,1.1616,1.1582,1.1589,1.1552,1.1531,1.1531,1.1495,1.154,1.1525,1.1486,1.1434,1.151,1.1534,1.1544,1.1402,1.14,1.1399,1.1398,0,0,1.1864,1.18,1.1808,1.1793,1.1749,1.1747,1.1755,1.1736,1.1735,1.1711,1.1717,1.1704,1.1668,1.1653,1.1614,1.1627,1.1692,1.1586,1.1584,1.1608,1.174,1.1771,1.1784,1.1663,1.1665,1.1666,1.1744,0,1.1941,1.1953,1.1904,1.1929,1.1927,1.1863,1.1871,1.1845,1.1814,1.1808,1.1773,1.1766,1.1718,1.1709,1.1719,1.1683,1.1718,1.1676,1.1668,1.1669,1.168,1.1796,1.1828,1.1903,1.1753,1.1754,1.1755,0,1.2033,1.2016,1.2041,1.1997,1.1994,1.2002,1.1981,1.1976,1.1945,1.1922,1.1906,1.1862,1.1867,1.1817,1.1824,1.1796,1.179,1.1772,1.1773,1.1771,1.1717,1.1798,1.1925,1.1937,1.177,1.1768,1.1767,0,1.2135,1.2117,1.213,1.2118,1.2067,1.2075,1.2054,1.2021,1.2013,1.1994,1.1988,1.197,1.196,1.1947,1.1899,1.1867,1.1911,1.1857,1.1892,1.1894,1.1905,1.1905,1.2034,1.19,1.19,1.19,1.1899,0,1.2227,1.2245,1.2175,1.2183,1.2202,1.2145,1.2165,1.2137,1.2109,1.2111,1.2053,1.2056,1.1992,1.1987,1.1949,1.1961,1.1957,1.1938,1.1928,1.1944,1.1946,1.1939,1.1933,1.1903,1.1902,1.1901,1.1901,0,1.2343,1.2297,1.2308,1.2259,1.2247,1.2263,1.2221,1.2227,1.2193,1.2195,1.2193,1.2139,1.2131,1.2082,1.2061,1.2036,1.2062,1.2041,1.2073,1.2066,1.2105,1.2103,1.2234,1.2249,1.2105,1.2107,1.2108,0,1.2406,1.2418,1.2372,1.2369,1.2351,1.2347,1.2339,1.2284,1.2278,1.2245,1.2255,1.2242,1.2229,1.2219,1.2178,1.2163,1.2142,1.2189,1.2139,1.2155,1.2144,1.2144,1.2145,1.22,1.2202,1.2203,1.2205,0,1.2521,1.2499,1.2489,1.2473,1.2465,1.2449,1.243,1.2431,1.237,1.2366,1.2358,1.2348,1.2328,1.2317,1.2295,1.2272,1.2229,1.2221,1.2228,1.2245,1.2264,1.2255,1.2103,1.2218,1.2217,1.2216,1.2215,1.2214,1.2613,1.2622,1.2591,1.2583,1.2563,1.2547,1.255,1.2517,1.2509,1.249,1.2458,1.2454,1.2424,1.239,1.2371,1.2368,1.2342,1.2353,1.2356,1.2359,1.2368,1.2264,1.2363,1.2363,1.2362,1.2362,1.2362,0,1.2727,1.2704,1.2698,1.2673,1.2667,1.2627,1.2604,1.2602,1.26,1.2575,1.2565,1.2556,1.2544,1.2503,1.2488,1.2493,1.2473,1.2491,1.249,1.2486,1.2391,1.2387,1.2508,1.2508,1.2508,1.2507,1.2507,1.2507,1.2786,1.2799,1.2773,1.2776,1.2752,1.2749,1.274,1.2724,1.2705,1.2698,1.2689,1.2662,1.2631,1.2613,1.2602,1.259,1.2587,1.2612,1.2594,1.2506,1.2492,1.2479,1.2475,1.2612,1.2612,1.2689,1.269,1.269]}]]